Hourly Data Report for September 11, 2020

OTTAWA INTL A
ONTARIO
Current Station Operator: NAVCAN

45°19'00.000" N
75°40'00.000" W
114.90 m
6106001
71628
YOW

Download Data

Hourly Data (September 2020)
Hourly Data Report for September 11, 2020
TIME Temp Definition
°C
Dew Point Definition
°C
Rel Hum Definition
%
Wind Dir Definition
10's deg

Wind Spd Definition
km/h
Visibility Definition
km
Stn Press Definition
kPa
Hmdx Definition


Wind Chill Definition


Weather Definition


00:00 10.6 7.8 83 35 10 24.1 101.25     LegendNANA
01:00 10.4 7.7 84 36 10 24.1 101.24     Mostly Cloudy
02:00 10.2 7.5 84 36 13 24.1 101.23     LegendNANA
03:00 10.0 7.3 83 36 13 24.1 101.27     LegendNANA
04:00 10.0 7.2 83 34 12 24.1 101.32     Mostly Cloudy
05:00 9.6 7.0 84 36 10 24.1 101.36     LegendNANA
06:00 8.9 6.8 86 35 15 24.1 101.43     LegendNANA
07:00 9.6 6.8 83 36 12 24.1 101.52     Mainly Clear
08:00 11.3 6.6 73 36 13 24.1 101.50     LegendNANA
09:00 12.9 6.4 65 36 15 24.1 101.50     LegendNANA
10:00 13.4 6.7 64 2 13 24.1 101.51     Mostly Cloudy
11:00 13.7 5.8 59 36 16 24.1 101.47     LegendNANA
12:00 14.4 7.2 62 2 11 24.1 101.46     LegendNANA
13:00 15.3 7.5 59 4 7 24.1 101.44     Mostly Cloudy
14:00 16.1 7.2 55 6 7 24.1 101.40     LegendNANA
15:00 16.2 6.0 50 27 7 24.1 101.38     LegendNANA
16:00 17.0 6.4 49 26 5 24.1 101.32     Mainly Clear
17:00 16.3 6.5 52 30 8 24.1 101.31     LegendNANA
18:00 14.3 6.7 60 35 7 24.1 101.32     LegendNANA
19:00 13.8 5.8 58 35 7 24.1 101.34     Mainly Clear
20:00 10.6 6.7 77 0 1 24.1 101.38     LegendNANA
21:00 8.5 7.0 90 33 3 24.1 101.40     LegendNANA
22:00 8.9 6.4 84 30 4 24.1 101.39     Clear
23:00 5.6 4.9 95 14 9 24.1 101.38     LegendNANA

Notes on Data Quality.

Legend

  • E = Estimated
  • M = Missing
  • NA = Not Available*
  • [empty] = Indicates an unobserved value
Date modified: